Regional Weather Roundup
Issued by NWS Raleigh/Durham, NC

Current Version | Previous Version | Graphics & Text | Print | Product List | Glossary On
Versions: 1 2 3 4 5 6 7 8 9 10 11 12 13 14 15 16 17 18 19 20 21 22 23 24 25 26 27 28 29 30 31 32 33 34 35 36 37 38 39 40 41 42 43 44 45 46 47 48 49 50
000
ASUS42 KRAH 230710
RWRRAH
NORTH CAROLINA WEATHER ROUNDUP
NATIONAL WEATHER SERVICE RALEIGH NC
300 AM EDT TUE SEP 23 2014

NOTE: "FAIR" INDICATES FEW OR NO CLOUDS BELOW 12,000 FEET WITH NO
SIGNIFICANT WEATHER AND/OR OBSTRUCTIONS TO VISIBILITY.

NCZ001-053-055-056-065-067-230800-
WESTERN NORTH CAROLINA

CITY           SKY/WX    TMP DP  RH WIND       PRES   REMARKS
ASHEVILLE      PTCLDY    54  48  80 N5        30.23F
JEFFERSON      CLEAR     47  43  86 N5        30.26S
HICKORY        CLOUDY    57  51  80 CALM      30.19S
RUTHERFORDTON  NOT AVBL
MOUNT AIRY     CLOUDY    56  50  81 CALM      30.23F
$$

NCZ021-022-025-041-071-084-088-230800-
CENTRAL NORTH CAROLINA

CITY           SKY/WX    TMP DP  RH WIND       PRES   REMARKS
CHARLOTTE      CLOUDY    62  49  62 N9        30.18S
GREENSBORO     CLOUDY    59  50  72 N8        30.19S
WINSTON-SALEM  CLOUDY    59  48  67 N12       30.20F
RALEIGH-DURHAM CLOUDY    63  52  67 NE14G20   30.18R
FORT BRAGG     CLOUDY    64  60  86 NE5       30.13F
FAYETTEVILLE   CLOUDY    64  62  93 N5        30.13F
$$

NCZ011-015-027-028-043-044-047-080-103-230800-
NORTHEASTERN NORTH CAROLINA

CITY           SKY/WX    TMP DP  RH WIND       PRES   REMARKS
ROANOKE RAPIDS FAIR      59  50  72 NE7       30.21R
ROCKY MT-WILSO CLOUDY    65  57  75 NE7       30.17R
GREENVILLE     CLOUDY    64  59  82 NE6       30.17S
WASHINGTON     CLOUDY    63  59  88 NE5       30.16S
ELIZABETH CITY NOT AVBL
MANTEO         CLOUDY    68  56  65 NE12      30.16R
CAPE HATTERAS  CLOUDY    68  60  75 NE10G18   30.13S
$$

NCZ078-087-090-091-093-098-101-230800-
SOUTHEASTERN NORTH CAROLINA

CITY           SKY/WX    TMP DP  RH WIND       PRES   REMARKS
LUMBERTON      CLOUDY    65  61  87 NE6       30.12F
GOLDSBORO      CLOUDY    65  63  91 CALM      30.13F
KINSTON        CLOUDY    65  59  81 NE3       30.16R
KENANSVILLE    CLOUDY    64  57  77 CALM      30.14F
NEW BERN       CLOUDY    69  61  75 NE8       30.15S
CHERRY POINT   CLOUDY    70  61  73 NE12      30.13F
BEAUFORT       CLOUDY    71  62  73 NE7       30.11F
JACKSONVILLE   CLOUDY    68  63  84 NE9       30.11F
WILMINGTON     CLOUDY    66  62  87 NE9       30.09F
$$



USA.gov is the U.S. government's official web portal to all federal, state and local government web resources and services.